Location: Strohbehn Observatory
(42.4649°N, 93.8239°W)
Time: 07:18:17
(UTC-06:00)

SL-16 R/B - Visible Passes

Search period start: 18 January 2018 00:00
Search period end: 28 January 2018 00:00
Orbit: 842 x 846 km, 71.0° (Epoch: 17 January)

Date Brightness Start Highest point End Pass type
(mag) Time Alt. Az. Time Alt. Az. Time Alt. Az.
25 Jan 4.5 20:00:19 10° N 20:00:44 12° N 20:00:44 12° N visible
26 Jan 4.3 19:46:05 10° N 19:47:06 14° N 19:47:06 14° N visible
27 Jan 4.0 19:31:51 10° N 19:33:33 16° NNE 19:33:33 16° NNE visible
27 Jan 4.9 21:15:13 10° NNW 21:15:27 11° NNW 21:15:27 11° NNW visible
